Simultaneous Nadir Overpasses (SNOs) Predictions

Prediction of SNOs between FY3D and NOAA-19 Satellite Orbit:

Table of predicted SNOs for the next 14.0 days since TLE Epoch: 10/19/2024
Index Date (FY3D) Time (FY3D) Lat,Lon (FY3D) SZA (FY3D ) Date (NOAA-19) Time (NOAA-19) Lat,Lon (NOAA-19) SZA (NOAA-19 ) Distance(km) Time Diff (sec)
1 10/22/2024 04:57:26 75.71, 108.39 86.94 10/22/2024 04:56:17 75.68, 106.36 86.87 55.69 69
2 10/22/2024 05:48:17 -75.98, -85.24 92.80 10/22/2024 05:47:11 -75.99, -85.33 92.80 2.50 66
3 10/22/2024 06:39:03 76.02, 81.95 87.25 10/22/2024 06:38:07 76.02, 82.03 87.25 2.12 56
4 10/22/2024 07:29:48 -76.02,-110.74 92.74 10/22/2024 07:29:08 -76.00,-110.77 92.76 1.69 40
5 10/22/2024 08:20:33 76.01, 56.61 87.27 10/22/2024 08:20:04 76.03, 56.60 87.29 2.73 29
6 10/22/2024 09:11:18 -76.01,-136.08 92.73 10/22/2024 09:11:05 -76.02,-136.20 92.72 3.41 13
7 10/22/2024 10:02:04 76.04, 31.11 87.32 10/22/2024 10:02:01 76.05, 31.17 87.33 1.57 3
8 10/22/2024 10:52:49 -76.04,-161.58 92.67 10/22/2024 10:53:02 -76.03,-161.63 92.68 1.81 13
9 10/22/2024 11:43:34 76.03, 5.77 87.34 10/22/2024 11:43:58 76.06, 5.74 87.37 3.45 24
10 10/22/2024 12:34:20 -76.08, 172.92 92.61 10/22/2024 12:34:59 -76.05, 172.93 92.64 3.38 39
11 10/22/2024 13:25:05 76.07, -19.73 87.40 10/22/2024 13:25:55 76.08, -19.69 87.41 1.41 50
12 10/22/2024 14:15:50 -76.07, 147.58 92.59 10/22/2024 14:16:56 -76.06, 147.50 92.60 2.30 66
13 10/22/2024 15:06:38 76.19, -45.55 87.54 10/22/2024 15:07:51 76.14, -44.96 87.50 16.91 73



Historial Predications of SNOs between FY3D and NOAA-19
